Worcester, MA

6:06 PM EDT on April 23, 2018 (GMT -0400)
Worcester Regional

Weather History for KORH - May, 2013

Change the Weather History Date:

Thursday, May 23, 2013

  Actual Average Record
Temperature  
Mean Temperature 62 °F 58 °F  
Max Temperature 69 °F 68 °F 89 °F (1964)
Min Temperature 54 °F 49 °F 32 °F (1929)
Degree Days  
Heating Degree Days 3 7  
Month to date heating degree days 184 236  
Since 1 July heating degree days 6147 6583  
Cooling Degree Days 0 1  
Month to date cooling degree days 3 8  
Year to date cooling degree days 3 11  
Growing Degree Days 11 (Base 50)    
Moisture  
Dew Point 62 °F    
Average Humidity 94    
Maximum Humidity 100    
Minimum Humidity 87    
Precipitation  
Precipitation 0.70 in 0.15 in 1.28 in (1983)
Month to date precipitation 2.21 2.99  
Year to date precipitation 14.57 18.03  
Snow  
Snow 0.00 in 0.00 in T in (1994)
Month to date snowfall 0.0 0.0  
Since 1 July snowfall 108.9 64.1  
Snow Depth -    
Sea Level Pressure  
Sea Level Pressure 29.88 in    
Wind  
Wind Speed 11 mph (SSW)    
Max Wind Speed 23 mph    
Max Gust Speed 33 mph    
Visibility 4 miles    
Events Fog , Rain    
T = Trace of Precipitation, MM = Missing Value Source: NWS Daily Summary

Daily Weather History Graph

Daily Weather History Graph

Search for Another Location

Airport or City:

Astronomy

May. 23, 2013 Rise Set
Actual Time 5:19 AM EDT 8:10 PM EDT
Civil Twilight 4:46 AM EDT 8:43 PM EDT
Nautical Twilight 4:04 AM EDT 9:25 PM EDT
Astronomical Twilight 3:16 AM EDT 10:13 PM EDT
Moon 6:37 PM EDT 4:03 AM EDT
Length of Visible Light 15h 57m
Length of Day
14h 51m
Waxing Gibbous, 97% of the Moon is Illuminated
May 23
Waxing Gibbous
May 25
Full
May 31
Last Quarter
Jun 8
New
Jun 16
First Quarter

Hourly Weather History & Observations

Time (EDT) Temp. Dew Point Humidity Pressure Visibility Wind Dir Wind Speed Gust Speed Precip Events Conditions
12:05 AM 54.0 °F 54.0 °F 100% 29.92 in 2.5 mi ENE 4.6 mph - N/A   Overcast
12:41 AM 54.0 °F 54.0 °F 100% 29.91 in 1.5 mi ESE 3.5 mph - N/A   Overcast
12:54 AM 54.0 °F 54.0 °F 100% 29.91 in 1.2 mi East 3.5 mph - N/A   Overcast
1:10 AM 54.0 °F 54.0 °F 100% 29.92 in 0.8 mi Calm Calm - N/A   Mist
1:33 AM 54.0 °F 54.0 °F 100% 29.91 in 0.5 mi SE 3.5 mph - N/A Fog Fog
1:43 AM 55.0 °F 55.0 °F 100% 29.91 in 0.2 mi Calm Calm - N/A Fog Fog
1:54 AM 55.0 °F 55.0 °F 100% 29.91 in 0.2 mi Calm Calm - N/A Fog Fog
2:54 AM 55.0 °F 55.0 °F 100% 29.88 in 0.2 mi Calm Calm - N/A Fog Fog
3:54 AM 55.9 °F 55.9 °F 100% 29.87 in 0.2 mi East 3.5 mph - N/A Fog Fog
4:54 AM 55.9 °F 55.9 °F 100% 29.88 in 0.2 mi SSE 3.5 mph - N/A Fog Fog
5:54 AM 57.9 °F 57.9 °F 100% 29.89 in 0.2 mi SW 5.8 mph - N/A Fog Fog
6:54 AM 62.1 °F 62.1 °F 100% 29.89 in 0.2 mi SSW 9.2 mph - N/A Fog Fog
7:39 AM 63.0 °F 63.0 °F 100% 29.90 in 0.2 mi SSW 12.7 mph - 0.01 in Fog , Rain Light Rain
7:54 AM 63.0 °F 63.0 °F 100% 29.90 in 0.2 mi SW 12.7 mph - 0.01 in Fog Fog
8:54 AM 64.0 °F 64.0 °F 100% 29.91 in 0.5 mi SW 10.4 mph - 0.00 in   Overcast
9:54 AM 64.9 °F 64.9 °F 100% 29.91 in 0.5 mi SW 8.1 mph - 0.01 in   Overcast
10:54 AM 66.0 °F 66.0 °F 100% 29.92 in 0.5 mi SW 10.4 mph - N/A   Overcast
10:57 AM 66.0 °F 66.0 °F 100% 29.92 in 2.0 mi SW 10.4 mph - N/A   Overcast
11:25 AM 68.0 °F 66.0 °F 93% 29.92 in 2.0 mi SW 9.2 mph - N/A   Overcast
11:49 AM 68.0 °F 64.4 °F 88% 29.92 in 2.0 mi SW 10.4 mph - N/A   Overcast
11:54 AM 68.0 °F 64.9 °F 90% 29.92 in 2.0 mi SW 11.5 mph - N/A   Overcast
12:08 PM 68.0 °F 64.9 °F 90% 29.91 in 7.0 mi SSW 10.4 mph - 0.00 in Rain Light Rain
12:47 PM 68.0 °F 66.9 °F 96% 29.90 in 5.0 mi South 13.8 mph - 0.04 in   Overcast
12:54 PM 68.0 °F 66.9 °F 96% 29.90 in 6.0 mi SSW 12.7 mph - 0.04 in   Overcast
1:54 PM 66.9 °F 66.0 °F 97% 29.90 in 6.0 mi SSW 12.7 mph - N/A   Overcast
2:32 PM 68.0 °F 64.9 °F 90% 29.90 in 8.0 mi SSW 18.4 mph 27.6 mph N/A   Overcast
2:54 PM 68.0 °F 64.9 °F 90% 29.89 in 8.0 mi SSW 16.1 mph 23.0 mph N/A   Overcast
3:54 PM 68.0 °F 64.9 °F 90% 29.88 in 10.0 mi SW 9.2 mph - 0.00 in Rain Light Rain
4:04 PM 68.0 °F 64.9 °F 90% 29.88 in 10.0 mi SW 15.0 mph 19.6 mph 0.00 in   Mostly Cloudy
4:11 PM 68.0 °F 64.9 °F 90% 29.88 in 10.0 mi SSW 11.5 mph - 0.00 in Rain Light Rain
4:54 PM 68.0 °F 64.9 °F 90% 29.86 in 10.0 mi SSW 12.7 mph 20.7 mph 0.00 in Rain Light Rain
5:54 PM 66.9 °F 64.9 °F 93% 29.88 in 9.0 mi SW 16.1 mph 25.3 mph 0.03 in Rain Light Rain
6:20 PM 66.9 °F 64.9 °F 93% 29.88 in 10.0 mi SW 15.0 mph - 0.01 in Rain Light Rain
6:54 PM 66.0 °F 64.0 °F 93% 29.87 in 10.0 mi SSW 13.8 mph - 0.01 in Rain Light Rain
7:38 PM 66.0 °F 64.0 °F 93% 29.88 in 10.0 mi SSW 12.7 mph - 0.00 in Rain Light Rain
7:54 PM 66.0 °F 63.0 °F 90% 29.87 in 10.0 mi SSW 12.7 mph - 0.00 in   Overcast
8:09 PM 64.9 °F 64.0 °F 97% 29.87 in 8.0 mi SSW 12.7 mph - N/A   Overcast
8:54 PM 64.9 °F 63.0 °F 93% 29.86 in 10.0 mi SSW 15.0 mph 24.2 mph N/A   Overcast
9:11 PM 64.9 °F 63.0 °F 93% 29.86 in 10.0 mi South 17.3 mph - N/A   Overcast
9:54 PM 64.0 °F 63.0 °F 96% 29.85 in 5.0 mi South 13.8 mph - 0.00 in Rain Light Rain
10:16 PM 64.0 °F 63.0 °F 96% 29.85 in 5.0 mi South 10.4 mph - 0.08 in Rain Light Rain
10:24 PM 63.0 °F 63.0 °F 100% 29.84 in 5.0 mi South 12.7 mph 21.9 mph 0.09 in Rain Light Rain
10:54 PM 63.0 °F 62.1 °F 97% 29.82 in 3.0 mi South 17.3 mph 26.5 mph 0.16 in Rain Rain
11:19 PM 63.0 °F 62.1 °F 97% 29.82 in 2.0 mi SSW 16.1 mph 28.8 mph 0.13 in Rain Heavy Rain
11:40 PM 63.0 °F 62.1 °F 97% 29.82 in 5.0 mi SSW 13.8 mph 23.0 mph 0.21 in Rain Light Rain
11:54 PM 63.0 °F 62.1 °F 97% 29.81 in 4.0 mi SSW 13.8 mph 21.9 mph 0.24 in Rain Rain